User: anonymous   Login
Location: *
(2.5500°S, 65.9667°W)
Time: 04:32:27
(UTC+00:00)
Language:

Okean O Rocket - Orbit

View from above orbital plane
View from above orbital plane
View from above satellite
View from above satellite

Ground track
Ground track

The orbit data is extracted from the following two-line orbital elements,

1 25861U 99039B   22017.81937984  .00000200  00000-0  34637-4 0  9992
2 25861  98.1927  42.2156 0016921  96.6044  77.2186 14.78705314213375
Epoch (UTC): 17 January 2022 19:39:54
Eccentricity: 0.0016921
inclination: 98.1927°
perigee height: 621 km
apogee height: 645 km
right ascension of ascending node: 42.2156°
argument of perigee: 96.6044°
revolutions per day: 14.78705314
mean anomaly at epoch: 77.2186°
orbit number at epoch: 21337

The dashed part of the orbit path shows where the satellite is in the earth's shadow,  

DLR